| time (UTC) | temp C | wind direction | speed KPH | gust KPH | rain 1hr cm | rain 24hr cm | rain mn cm | humidity % | barometer mb |
| 20260510220642 | 20 | 46 | 8.0 | 11.3 | 0.00 | 0.00 | 0.00 | 32 | 1022.4 |
| 20260510220137 | 20 | 62 | 8.0 | 12.9 | 0.00 | 0.00 | 0.00 | 31 | 1022.4 |
| 20260510215635 | 20 | 347 | 8.0 | 9.7 | 0.00 | 0.00 | 0.00 | 33 | 1022.5 |
| 20260510215133 | 20 | 344 | 3.2 | 4.8 | 0.00 | 0.00 | 0.00 | 34 | 1022.3 |
| 20260510214630 | 19 | 66 | 4.8 | 6.4 | 0.00 | 0.00 | 0.00 | 33 | 1022.2 |
| 20260510214126 | 20 | 45 | 8.0 | 11.3 | 0.00 | 0.00 | 0.00 | 33 | 1022.4 |
| 20260510213623 | 20 | 22 | 8.0 | 11.3 | 0.00 | 0.00 | 0.00 | 32 | 1022.4 |
| 20260510213120 | 20 | 49 | 8.0 | 9.7 | 0.00 | 0.00 | 0.00 | 33 | 1022.3 |
| 20260510212616 | 20 | 166 | 1.6 | 3.2 | 0.00 | 0.00 | 0.00 | 38 | 1022.2 |
| 20260510212114 | 19 | 348 | 3.2 | 6.4 | 0.00 | 0.00 | 0.00 | 34 | 1022.2 |
| 20260510211605 | 19 | 16 | 14.5 | 17.7 | 0.00 | 0.00 | 0.00 | 32 | 1022.3 |
| 20260510211104 | 19 | 320 | 4.8 | 4.8 | 0.00 | 0.00 | 0.00 | 33 | 1022.3 |
| 20260510210601 | 19 | 61 | 11.3 | 14.5 | 0.00 | 0.00 | 0.00 | 34 | 1022.4 |
| 20260510210056 | 20 | 353 | 4.8 | 4.8 | 0.00 | 0.00 | 0.00 | 35 | 1022.3 |
| 20260510205555 | 20 | 130 | 1.6 | 3.2 | 0.00 | 0.00 | 0.00 | 35 | 1022.3 |
| 20260510205051 | 19 | 58 | 8.0 | 11.3 | 0.00 | 0.00 | 0.00 | 32 | 1022.3 |
| 20260510204548 | 20 | 1 | 8.0 | 11.3 | 0.00 | 0.00 | 0.00 | 33 | 1022.6 |
| 20260510204045 | 19 | 29 | 0.0 | 0.0 | 0.00 | 0.00 | 0.00 | 34 | 1022.6 |
| 20260510203542 | 19 | 20 | 9.7 | 11.3 | 0.00 | 0.00 | 0.00 | 33 | 1023.0 |
| 20260510203039 | 18 | 346 | 9.7 | 12.9 | 0.00 | 0.00 | 0.00 | 33 | 1022.6 |
| 20260510202538 | 18 | 30 | 8.0 | 11.3 | 0.00 | 0.00 | 0.00 | 34 | 1022.7 |
| 20260510202034 | 18 | 355 | 8.0 | 11.3 | 0.00 | 0.00 | 0.00 | 33 | 1022.7 |
| 20260510201532 | 18 | 0 | 11.3 | 14.5 | 0.00 | 0.00 | 0.00 | 34 | 1022.7 |
| 20260510201028 | 18 | 43 | 3.2 | 6.4 | 0.00 | 0.00 | 0.00 | 34 | 1022.9 |
| 20260510200524 | 18 | 4 | 8.0 | 14.5 | 0.00 | 0.00 | 0.00 | 35 | 1023.1 |
| 20260510200022 | 18 | 358 | 8.0 | 11.3 | 0.00 | 0.00 | 0.00 | 35 | 1022.7 |
| 20260510195520 | 18 | 358 | 4.8 | 4.8 | 0.00 | 0.00 | 0.00 | 36 | 1022.7 |
| 20260510195015 | 18 | 25 | 6.4 | 9.7 | 0.00 | 0.00 | 0.00 | 34 | 1022.9 |
| 20260510194511 | 18 | 21 | 9.7 | 12.9 | 0.00 | 0.00 | 0.00 | 32 | 1023.1 |
| 20260510194006 | 18 | 16 | 11.3 | 16.1 | 0.00 | 0.00 | 0.00 | 32 | 1023.1 |
| 20260510193501 | 18 | 336 | 4.8 | 4.8 | 0.00 | 0.00 | 0.00 | 38 | 1023.3 |
| 20260510192957 | 18 | 46 | 3.2 | 4.8 | 0.00 | 0.00 | 0.00 | 33 | 1023.5 |
| 20260510192452 | 18 | 55 | 6.4 | 6.4 | 0.00 | 0.00 | 0.00 | 32 | 1023.2 |
| 20260510191948 | 18 | 3 | 9.7 | 14.5 | 0.00 | 0.00 | 0.00 | 34 | 1023.3 |
| 20260510191444 | 18 | 17 | 3.2 | 3.2 | 0.00 | 0.00 | 0.00 | 34 | 1023.3 |
| 20260510190942 | 18 | 1 | 8.0 | 9.7 | 0.00 | 0.00 | 0.00 | 35 | 1023.4 |
| 20260510190439 | 18 | 356 | 9.7 | 12.9 | 0.00 | 0.00 | 0.00 | 34 | 1023.3 |
| 20260510185936 | 18 | 350 | 8.0 | 11.3 | 0.00 | 0.00 | 0.00 | 33 | 1023.1 |
| 20260510185433 | 18 | 73 | 8.0 | 12.9 | 0.00 | 0.00 | 0.00 | 33 | 1023.1 |
| 20260510184930 | 18 | 350 | 4.8 | 4.8 | 0.00 | 0.00 | 0.00 | 35 | 1023.1 |
| 20260510184428 | 18 | 60 | 4.8 | 4.8 | 0.00 | 0.00 | 0.00 | 33 | 1023.1 |
| 20260510183926 | 18 | 49 | 3.2 | 4.8 | 0.00 | 0.00 | 0.00 | 35 | 1023.2 |
| 20260510183424 | 18 | 19 | 4.8 | 4.8 | 0.00 | 0.00 | 0.00 | 36 | 1023.1 |
| 20260510182919 | 18 | 38 | 9.7 | 11.3 | 0.00 | 0.00 | 0.00 | 34 | 1023.0 |
| 20260510182415 | 18 | 55 | 3.2 | 4.8 | 0.00 | 0.00 | 0.00 | 34 | 1023.1 |
| 20260510181911 | 17 | 39 | 6.4 | 6.4 | 0.00 | 0.00 | 0.00 | 35 | 1023.2 |
| 20260510181409 | 18 | 82 | 1.6 | 1.6 | 0.00 | 0.00 | 0.00 | 35 | 1023.1 |
| 20260510180905 | 17 | 4 | 9.7 | 11.3 | 0.00 | 0.00 | 0.00 | 34 | 1023.2 |
| 20260510180402 | 17 | 18 | 11.3 | 12.9 | 0.00 | 0.00 | 0.00 | 34 | 1023.3 |
| 20260510175859 | 18 | 65 | 3.2 | 4.8 | 0.00 | 0.00 | 0.00 | 36 | 1023.5 |
| 20260510175355 | 17 | 76 | 6.4 | 6.4 | 0.00 | 0.00 | 0.00 | 34 | 1023.4 |
| 20260510174850 | 17 | 301 | 8.0 | 9.7 | 0.00 | 0.00 | 0.00 | 34 | 1023.5 |
| 20260510174349 | 17 | 8 | 6.4 | 6.4 | 0.00 | 0.00 | 0.00 | 34 | 1023.6 |
| 20260510173844 | 17 | 348 | 8.0 | 11.3 | 0.00 | 0.00 | 0.00 | 36 | 1023.3 |
| 20260510173340 | 17 | 353 | 11.3 | 12.9 | 0.00 | 0.00 | 0.00 | 33 | 1023.4 |
| 20260510172837 | 17 | 52 | 1.6 | 3.2 | 0.00 | 0.00 | 0.00 | 34 | 1023.3 |
| 20260510172333 | 18 | 359 | 1.6 | 3.2 | 0.00 | 0.00 | 0.00 | 35 | 1023.1 |
| 20260510171829 | 17 | 19 | 6.4 | 9.7 | 0.00 | 0.00 | 0.00 | 36 | 1023.1 |
| 20260510171326 | 17 | 75 | 0.0 | 1.6 | 0.00 | 0.00 | 0.00 | 38 | 1023.1 |
| 20260510170824 | 17 | 350 | 8.0 | 11.3 | 0.00 | 0.00 | 0.00 | 33 | 1023.5 |
| 20260510170319 | 17 | 32 | 11.3 | 16.1 | 0.00 | 0.00 | 0.00 | 35 | 1023.3 |
| 20260510165814 | 18 | 101 | 0.0 | 1.6 | 0.00 | 0.00 | 0.00 | 36 | 1023.1 |
| 20260510165312 | 17 | 82 | 4.8 | 6.4 | 0.00 | 0.00 | 0.00 | 34 | 1023.2 |
| 20260510164809 | 17 | 22 | 9.7 | 12.9 | 0.00 | 0.00 | 0.00 | 35 | 1022.8 |
| 20260510164307 | 17 | 359 | 9.7 | 12.9 | 0.00 | 0.00 | 0.00 | 35 | 1023.1 |
| 20260510163801 | 17 | 354 | 8.0 | 9.7 | 0.00 | 0.00 | 0.00 | 38 | 1022.8 |
| 20260510163257 | 17 | 92 | 4.8 | 4.8 | 0.00 | 0.00 | 0.00 | 39 | 1022.8 |
| 20260510162756 | 17 | 20 | 6.4 | 9.7 | 0.00 | 0.00 | 0.00 | 37 | 1023.0 |
| 20260510162254 | 16 | 52 | 8.0 | 11.3 | 0.00 | 0.00 | 0.00 | 38 | 1023.1 |
| 20260510161749 | 16 | 2 | 14.5 | 14.5 | 0.00 | 0.00 | 0.00 | 38 | 1022.8 |
| 20260510161245 | 16 | 1 | 11.3 | 12.9 | 0.00 | 0.00 | 0.00 | 38 | 1022.9 |
| 20260510160743 | 16 | 344 | 12.9 | 16.1 | 0.00 | 0.00 | 0.00 | 37 | 1023.1 |
| 20260510160239 | 16 | 48 | 9.7 | 12.9 | 0.00 | 0.00 | 0.00 | 38 | 1023.1 |
| 20260510155735 | 16 | 11 | 8.0 | 9.7 | 0.00 | 0.00 | 0.00 | 38 | 1023.0 |
| 20260510155230 | 16 | 50 | 4.8 | 6.4 | 0.00 | 0.00 | 0.00 | 39 | 1022.9 |
| 20260510154727 | 16 | 64 | 1.6 | 3.2 | 0.00 | 0.00 | 0.00 | 41 | 1023.1 |
| 20260510154223 | 16 | 14 | 3.2 | 4.8 | 0.00 | 0.00 | 0.00 | 39 | 1023.1 |
| 20260510153718 | 16 | 165 | 4.8 | 4.8 | 0.00 | 0.00 | 0.00 | 39 | 1022.9 |
| 20260510153214 | 16 | 82 | 4.8 | 4.8 | 0.00 | 0.00 | 0.00 | 39 | 1023.0 |
| 20260510152711 | 16 | 40 | 4.8 | 9.7 | 0.00 | 0.00 | 0.00 | 40 | 1023.2 |
| 20260510152207 | 16 | 51 | 3.2 | 4.8 | 0.00 | 0.00 | 0.00 | 38 | 1022.7 |
| 20260510151704 | 16 | 43 | 9.7 | 12.9 | 0.00 | 0.00 | 0.00 | 38 | 1022.5 |
| 20260510151202 | 16 | 57 | 4.8 | 6.4 | 0.00 | 0.00 | 0.00 | 40 | 1022.6 |
| 20260510150658 | 15 | 85 | 4.8 | 6.4 | 0.00 | 0.00 | 0.00 | 39 | 1022.5 |
| 20260510150153 | 15 | 58 | 6.4 | 9.7 | 0.00 | 0.00 | 0.00 | 39 | 1022.2 |
| 20260510145649 | 16 | 80 | 6.4 | 9.7 | 0.00 | 0.00 | 0.00 | 40 | 1022.4 |
| 20260510145146 | 15 | 68 | 4.8 | 4.8 | 0.00 | 0.00 | 0.00 | 43 | 1022.4 |
| 20260510144642 | 15 | 31 | 4.8 | 6.4 | 0.00 | 0.00 | 0.00 | 40 | 1022.5 |
| 20260510144138 | 15 | 64 | 4.8 | 9.7 | 0.00 | 0.00 | 0.00 | 41 | 1022.5 |
| 20260510143634 | 15 | 43 | 4.8 | 4.8 | 0.00 | 0.00 | 0.00 | 44 | 1022.3 |
| 20260510143131 | 15 | 27 | 3.2 | 4.8 | 0.00 | 0.00 | 0.00 | 43 | 1022.5 |
| 20260510142627 | 14 | 60 | 1.6 | 3.2 | 0.00 | 0.00 | 0.00 | 42 | 1022.6 |
| 20260510142123 | 14 | 73 | 4.8 | 9.7 | 0.00 | 0.00 | 0.00 | 43 | 1022.4 |
| 20260510141620 | 14 | 41 | 3.2 | 3.2 | 0.00 | 0.00 | 0.00 | 45 | 1022.4 |
| 20260510141119 | 13 | 34 | 4.8 | 4.8 | 0.00 | 0.00 | 0.00 | 44 | 1022.6 |
| 20260510140615 | 13 | 90 | 6.4 | 6.4 | 0.00 | 0.00 | 0.00 | 43 | 1022.6 |
| 20260510140114 | 14 | 71 | 6.4 | 14.5 | 0.00 | 0.00 | 0.00 | 42 | 1022.5 |
| 20260510135610 | 14 | 146 | 3.2 | 3.2 | 0.00 | 0.00 | 0.00 | 43 | 1022.4 |
| 20260510135106 | 14 | 60 | 6.4 | 6.4 | 0.00 | 0.00 | 0.00 | 42 | 1022.4 |
| 20260510134603 | 15 | 150 | 1.6 | 4.8 | 0.00 | 0.00 | 0.00 | 42 | 1022.4 |
| 20260510134100 | 14 | 48 | 1.6 | 3.2 | 0.00 | 0.00 | 0.00 | 45 | 1022.3 |
| 20260510133556 | 13 | 18 | 3.2 | 3.2 | 0.00 | 0.00 | 0.00 | 43 | 1022.1 |
| 20260510133052 | 13 | 41 | 4.8 | 4.8 | 0.00 | 0.00 | 0.00 | 43 | 1022.4 |
| 20260510132549 | 13 | 39 | 4.8 | 6.4 | 0.00 | 0.00 | 0.00 | 45 | 1022.2 |
| 20260510132046 | 13 | 47 | 1.6 | 4.8 | 0.00 | 0.00 | 0.00 | 47 | 1022.2 |
| 20260510131544 | 13 | 71 | 6.4 | 12.9 | 0.00 | 0.00 | 0.00 | 46 | 1022.1 |
| 20260510131041 | 13 | 359 | 4.8 | 9.7 | 0.00 | 0.00 | 0.00 | 47 | 1021.8 |
| 20260510130537 | 13 | 1 | 6.4 | 9.7 | 0.00 | 0.00 | 0.00 | 46 | 1022.0 |
| 20260510130035 | 13 | 337 | 1.6 | 3.2 | 0.00 | 0.00 | 0.00 | 46 | 1021.8 |
| 20260510125530 | 13 | 7 | 6.4 | 6.4 | 0.00 | 0.00 | 0.00 | 44 | 1021.8 |
| 20260510125027 | 13 | 31 | 6.4 | 6.4 | 0.00 | 0.00 | 0.00 | 43 | 1021.4 |
| 20260510124524 | 13 | 34 | 11.3 | 14.5 | 0.00 | 0.00 | 0.00 | 42 | 1021.6 |
| 20260510124021 | 13 | 17 | 4.8 | 4.8 | 0.00 | 0.00 | 0.00 | 44 | 1021.2 |
| 20260510123516 | 13 | 78 | 4.8 | 4.8 | 0.00 | 0.00 | 0.00 | 45 | 1021.2 |
| 20260510123012 | 13 | 357 | 1.6 | 1.6 | 0.00 | 0.00 | 0.00 | 46 | 1021.2 |
| 20260510122509 | 13 | 25 | 6.4 | 11.3 | 0.00 | 0.00 | 0.00 | 44 | 1020.9 |
| 20260510122004 | 13 | 25 | 4.8 | 6.4 | 0.00 | 0.00 | 0.00 | 44 | 1020.9 |
| 20260510121502 | 13 | 29 | 8.0 | 9.7 | 0.00 | 0.00 | 0.00 | 44 | 1020.8 |
| 20260510120959 | 13 | 66 | 4.8 | 6.4 | 0.00 | 0.00 | 0.00 | 44 | 1020.6 |
| 20260510120456 | 13 | 64 | 6.4 | 9.7 | 0.00 | 0.00 | 0.00 | 45 | 1020.5 |
| 20260510115952 | 13 | 354 | 4.8 | 4.8 | 0.00 | 0.00 | 0.00 | 45 | 1020.2 |
| 20260510115449 | 13 | 344 | 1.6 | 1.6 | 0.00 | 0.00 | 0.00 | 46 | 1019.9 |
| 20260510114945 | 13 | 35 | 6.4 | 6.4 | 0.00 | 0.00 | 0.00 | 44 | 1020.0 |
| 20260510114442 | 13 | 28 | 6.4 | 9.7 | 0.00 | 0.00 | 0.00 | 44 | 1019.8 |
| 20260510113938 | 13 | 3 | 3.2 | 3.2 | 0.00 | 0.00 | 0.00 | 44 | 1019.8 |
| 20260510113433 | 13 | 53 | 6.4 | 9.7 | 0.00 | 0.00 | 0.00 | 45 | 1019.8 |
| 20260510112931 | 13 | 53 | 3.2 | 3.2 | 0.00 | 0.00 | 0.00 | 45 | 1019.6 |
| 20260510112428 | 13 | 337 | 8.0 | 14.5 | 0.00 | 0.00 | 0.00 | 45 | 1019.7 |
| 20260510111924 | 13 | 16 | 6.4 | 9.7 | 0.00 | 0.00 | 0.00 | 45 | 1019.6 |
| 20260510111420 | 13 | 52 | 3.2 | 6.4 | 0.00 | 0.00 | 0.00 | 45 | 1019.5 |
| 20260510110916 | 13 | 354 | 6.4 | 9.7 | 0.00 | 0.00 | 0.00 | 45 | 1019.4 |
| 20260510110413 | 13 | 43 | 6.4 | 11.3 | 0.00 | 0.00 | 0.00 | 45 | 1019.2 |
| 20260510105908 | 13 | 21 | 4.8 | 9.7 | 0.00 | 0.00 | 0.00 | 45 | 1019.4 |
| 20260510105403 | 13 | 41 | 4.8 | 6.4 | 0.00 | 0.00 | 0.00 | 46 | 1019.4 |
| 20260510104859 | 14 | 3 | 8.0 | 14.5 | 0.00 | 0.00 | 0.00 | 47 | 1019.6 |
| 20260510104356 | 14 | 36 | 3.2 | 3.2 | 0.00 | 0.00 | 0.00 | 46 | 1019.3 |
| 20260510103852 | 14 | 21 | 3.2 | 3.2 | 0.00 | 0.00 | 0.00 | 47 | 1019.3 |
| 20260510103350 | 14 | 46 | 14.5 | 20.9 | 0.00 | 0.00 | 0.00 | 47 | 1019.3 |
| 20260510102845 | 14 | 346 | 3.2 | 3.2 | 0.00 | 0.00 | 0.00 | 49 | 1019.2 |
| 20260510102341 | 14 | 349 | 6.4 | 6.4 | 0.00 | 0.00 | 0.00 | 51 | 1019.0 |
| 20260510101838 | 15 | 15 | 6.4 | 9.7 | 0.00 | 0.00 | 0.00 | 51 | 1019.0 |
| 20260510101336 | 15 | 350 | 3.2 | 3.2 | 0.00 | 0.00 | 0.00 | 51 | 1018.8 |
| 20260510100832 | 15 | 359 | 4.8 | 6.4 | 0.00 | 0.00 | 0.00 | 50 | 1018.5 |
| 20260510100330 | 15 | 21 | 8.0 | 14.5 | 0.00 | 0.00 | 0.00 | 50 | 1018.5 |
| 20260510095826 | 15 | 332 | 3.2 | 3.2 | 0.00 | 0.00 | 0.00 | 49 | 1018.5 |
| 20260510095321 | 15 | 356 | 3.2 | 4.8 | 0.00 | 0.00 | 0.00 | 47 | 1018.5 |
| 20260510094815 | 15 | 55 | 4.8 | 4.8 | 0.00 | 0.00 | 0.00 | 46 | 1018.2 |
| 20260510094310 | 15 | 47 | 9.7 | 11.3 | 0.00 | 0.00 | 0.00 | 46 | 1018.0 |
| 20260510093807 | 15 | 43 | 8.0 | 11.3 | 0.00 | 0.00 | 0.00 | 47 | 1018.2 |
| 20260510093303 | 15 | 38 | 3.2 | 3.2 | 0.00 | 0.00 | 0.00 | 48 | 1018.3 |
| 20260510092800 | 15 | 60 | 3.2 | 4.8 | 0.00 | 0.00 | 0.00 | 48 | 1018.2 |
| 20260510092255 | 15 | 47 | 9.7 | 11.3 | 0.00 | 0.00 | 0.00 | 48 | 1018.1 |
| 20260510091751 | 15 | 97 | 3.2 | 4.8 | 0.00 | 0.00 | 0.00 | 48 | 1018.1 |
| 20260510091248 | 15 | 74 | 4.8 | 6.4 | 0.00 | 0.00 | 0.00 | 48 | 1017.9 |
| 20260510090745 | 15 | 22 | 3.2 | 3.2 | 0.00 | 0.00 | 0.00 | 48 | 1018.1 |
| 20260510090242 | 15 | 47 | 12.9 | 12.9 | 0.00 | 0.00 | 0.00 | 49 | 1017.9 |
| 20260510085737 | 15 | 62 | 3.2 | 4.8 | 0.00 | 0.00 | 0.00 | 51 | 1017.9 |
| 20260510085232 | 15 | 59 | 3.2 | 4.8 | 0.00 | 0.00 | 0.00 | 52 | 1017.7 |
| 20260510084728 | 15 | 2 | 3.2 | 3.2 | 0.00 | 0.00 | 0.00 | 53 | 1017.6 |
| 20260510084225 | 15 | 6 | 12.9 | 14.5 | 0.00 | 0.00 | 0.00 | 52 | 1017.8 |
| 20260510083722 | 15 | 39 | 11.3 | 12.9 | 0.00 | 0.00 | 0.00 | 53 | 1017.4 |
| 20260510083219 | 15 | 84 | 6.4 | 9.7 | 0.00 | 0.00 | 0.00 | 55 | 1017.3 |
| 20260510082714 | 15 | 30 | 8.0 | 9.7 | 0.00 | 0.00 | 0.00 | 56 | 1017.2 |
| 20260510082212 | 16 | 34 | 6.4 | 9.7 | 0.00 | 0.00 | 0.00 | 56 | 1017.3 |
| 20260510081710 | 16 | 27 | 4.8 | 4.8 | 0.00 | 0.00 | 0.00 | 57 | 1017.1 |
| 20260510081207 | 15 | 339 | 6.4 | 9.7 | 0.00 | 0.00 | 0.00 | 59 | 1017.2 |
| 20260510080701 | 16 | 351 | 9.7 | 12.9 | 0.00 | 0.00 | 0.00 | 61 | 1017.2 |
| 20260510080158 | 16 | 13 | 6.4 | 6.4 | 0.00 | 0.00 | 0.00 | 61 | 1017.2 |
| 20260510075654 | 16 | 34 | 1.6 | 3.2 | 0.00 | 0.00 | 0.00 | 63 | 1016.5 |
| 20260510075153 | 16 | 350 | 1.6 | 1.6 | 0.00 | 0.00 | 0.00 | 62 | 1016.6 |
| 20260510074649 | 16 | 43 | 6.4 | 11.3 | 0.00 | 0.00 | 0.00 | 61 | 1016.9 |
| 20260510074145 | 16 | 35 | 6.4 | 11.3 | 0.00 | 0.00 | 0.00 | 61 | 1017.0 |
| 20260510073642 | 16 | 20 | 6.4 | 6.4 | 0.00 | 0.00 | 0.00 | 62 | 1017.1 |
| 20260510073137 | 16 | 22 | 4.8 | 4.8 | 0.00 | 0.00 | 0.00 | 61 | 1017.0 |
| 20260510072628 | 16 | 25 | 3.2 | 3.2 | 0.00 | 0.00 | 0.00 | 61 | 1016.7 |
| 20260510072125 | 16 | 42 | 3.2 | 6.4 | 0.00 | 0.00 | 0.00 | 60 | 1016.6 |
| 20260510071620 | 16 | 359 | 1.6 | 3.2 | 0.00 | 0.00 | 0.00 | 63 | 1016.7 |
| 20260510071118 | 16 | 66 | 0.0 | 0.0 | 0.00 | 0.00 | 0.00 | 61 | 1016.4 |
| 20260510070615 | 16 | 75 | 0.0 | 1.6 | 0.00 | 0.00 | 0.00 | 61 | 1016.3 |
| 20260510070113 | 16 | 48 | 0.0 | 1.6 | 0.00 | 0.00 | 0.00 | 60 | 1016.4 |
| 20260510065608 | 16 | 75 | 0.0 | 0.0 | 0.00 | 0.00 | 0.00 | 60 | 1016.5 |
| 20260510065104 | 16 | 83 | 0.0 | 0.0 | 0.00 | 0.00 | 0.00 | 61 | 1016.3 |
| 20260510064555 | 16 | 56 | 0.0 | 1.6 | 0.00 | 0.00 | 0.00 | 59 | 1016.2 |
| 20260510064052 | 16 | 82 | 4.8 | 4.8 | 0.00 | 0.00 | 0.00 | 59 | 1016.3 |
| 20260510063550 | 16 | 25 | 1.6 | 1.6 | 0.00 | 0.00 | 0.00 | 60 | 1016.2 |
| 20260510063046 | 17 | 2 | 3.2 | 3.2 | 0.00 | 0.00 | 0.00 | 59 | 1016.2 |
| 20260510062542 | 17 | 15 | 3.2 | 3.2 | 0.00 | 0.00 | 0.00 | 57 | 1016.1 |
| 20260510062037 | 17 | 35 | 1.6 | 3.2 | 0.00 | 0.00 | 0.00 | 55 | 1015.8 |
| 20260510061534 | 17 | 49 | 1.6 | 1.6 | 0.00 | 0.00 | 0.00 | 56 | 1015.9 |
| 20260510061031 | 17 | 135 | 0.0 | 0.0 | 0.00 | 0.00 | 0.00 | 58 | 1015.7 |
| 20260510060527 | 17 | 116 | 0.0 | 0.0 | 0.00 | 0.00 | 0.00 | 57 | 1016.0 |
| 20260510060023 | 18 | 116 | 0.0 | 0.0 | 0.00 | 0.00 | 0.00 | 55 | 1015.8 |
| 20260510055520 | 18 | 73 | 1.6 | 1.6 | 0.00 | 0.00 | 0.00 | 54 | 1015.9 |
| 20260510055018 | 18 | 56 | 1.6 | 1.6 | 0.00 | 0.00 | 0.00 | 54 | 1016.0 |
| 20260510054514 | 18 | 139 | 0.0 | 0.0 | 0.00 | 0.00 | 0.00 | 54 | 1015.8 |
| 20260510054009 | 18 | 57 | 3.2 | 4.8 | 0.00 | 0.00 | 0.00 | 53 | 1015.6 |
| 20260510053503 | 18 | 12 | 1.6 | 1.6 | 0.00 | 0.00 | 0.00 | 57 | 1015.9 |
| 20260510053001 | 18 | 61 | 1.6 | 3.2 | 0.00 | 0.00 | 0.00 | 55 | 1016.0 |
| 20260510052457 | 18 | 172 | 4.8 | 6.4 | 0.00 | 0.00 | 0.00 | 58 | 1015.7 |
| 20260510051953 | 18 | 12 | 1.6 | 3.2 | 0.00 | 0.00 | 0.00 | 57 | 1016.0 |
| 20260510051448 | 18 | 158 | 0.0 | 0.0 | 0.00 | 0.00 | 0.00 | 56 | 1015.7 |
| 20260510050945 | 18 | 175 | 3.2 | 3.2 | 0.00 | 0.00 | 0.00 | 57 | 1015.6 |
| 20260510050443 | 18 | 179 | 6.4 | 6.4 | 0.00 | 0.00 | 0.00 | 55 | 1015.3 |
| 20260510045939 | 19 | 55 | 0.0 | 1.6 | 0.00 | 0.00 | 0.00 | 54 | 1014.9 |
| 20260510045436 | 19 | 8 | 6.4 | 9.7 | 0.00 | 0.00 | 0.00 | 54 | 1014.6 |
| 20260510044933 | 19 | 20 | 3.2 | 3.2 | 0.00 | 0.00 | 0.00 | 55 | 1014.5 |
| 20260510044430 | 19 | 1 | 8.0 | 12.9 | 0.00 | 0.00 | 0.00 | 55 | 1014.2 |
| 20260510043927 | 19 | 346 | 9.7 | 9.7 | 0.00 | 0.00 | 0.00 | 55 | 1014.3 |
| 20260510043423 | 20 | 350 | 6.4 | 9.7 | 0.00 | 0.00 | 0.00 | 55 | 1014.1 |
| 20260510042921 | 19 | 344 | 6.4 | 9.7 | 0.00 | 0.00 | 0.00 | 55 | 1014.0 |
| 20260510042417 | 19 | 330 | 3.2 | 4.8 | 0.00 | 0.00 | 0.00 | 56 | 1013.8 |
| 20260510041913 | 19 | 343 | 1.6 | 3.2 | 0.00 | 0.00 | 0.00 | 56 | 1013.8 |
| 20260510041410 | 19 | 359 | 4.8 | 4.8 | 0.00 | 0.00 | 0.00 | 57 | 1013.7 |
| 20260510040908 | 19 | 34 | 0.0 | 0.0 | 0.00 | 0.00 | 0.00 | 57 | 1013.6 |
| 20260510040404 | 19 | 34 | 0.0 | 1.6 | 0.00 | 0.00 | 0.00 | 57 | 1013.4 |
| 20260510035900 | 19 | 44 | 0.0 | 0.0 | 0.00 | 0.00 | 0.00 | 57 | 1013.4 |
| 20260510035356 | 19 | 47 | 0.0 | 0.0 | 0.00 | 0.00 | 0.00 | 57 | 1013.1 |
| 20260510034851 | 19 | 46 | 0.0 | 0.0 | 0.00 | 0.00 | 0.00 | 57 | 1013.4 |
| 20260510034350 | 19 | 45 | 0.0 | 0.0 | 0.00 | 0.00 | 0.00 | 57 | 1013.0 |
| 20260510033846 | 20 | 60 | 0.0 | 0.0 | 0.00 | 0.00 | 0.00 | 56 | 1013.2 |
| 20260510033343 | 20 | 116 | 0.0 | 1.6 | 0.00 | 0.00 | 0.00 | 55 | 1013.2 |
| 20260510032839 | 20 | 31 | 3.2 | 3.2 | 0.00 | 0.00 | 0.00 | 53 | 1013.2 |
| 20260510032336 | 20 | 79 | 0.0 | 1.6 | 0.00 | 0.00 | 0.00 | 57 | 1012.9 |
| 20260510031831 | 20 | 38 | 0.0 | 1.6 | 0.00 | 0.00 | 0.00 | 56 | 1013.2 |
| 20260510031326 | 19 | 38 | 0.0 | 0.0 | 0.00 | 0.00 | 0.00 | 59 | 1012.8 |
| 20260510030821 | 19 | 148 | 0.0 | 0.0 | 0.00 | 0.00 | 0.00 | 61 | 1012.8 |
| 20260510030317 | 20 | 149 | 1.6 | 1.6 | 0.00 | 0.00 | 0.00 | 56 | 1012.9 |
| 20260510025815 | 19 | 181 | 0.0 | 0.0 | 0.00 | 0.00 | 0.00 | 59 | 1013.0 |
| 20260510025313 | 19 | 212 | 0.0 | 0.0 | 0.00 | 0.00 | 0.00 | 56 | 1013.1 |
| 20260510024809 | 20 | 212 | 0.0 | 0.0 | 0.00 | 0.00 | 0.00 | 56 | 1013.5 |
| 20260510024306 | 20 | 241 | 1.6 | 1.6 | 0.00 | 0.00 | 0.00 | 56 | 1013.4 |
| 20260510023802 | 20 | 301 | 1.6 | 1.6 | 0.00 | 0.00 | 0.00 | 54 | 1013.2 |
| 20260510023258 | 20 | 297 | 1.6 | 3.2 | 0.00 | 0.00 | 0.00 | 55 | 1012.9 |
| 20260510022756 | 20 | 294 | 1.6 | 1.6 | 0.00 | 0.00 | 0.00 | 55 | 1012.8 |
| 20260510022255 | 20 | 91 | 0.0 | 0.0 | 0.00 | 0.00 | 0.00 | 54 | 1012.5 |
| 20260510021754 | 20 | 92 | 0.0 | 0.0 | 0.00 | 0.00 | 0.00 | 53 | 1012.2 |
| 20260510021253 | 20 | 48 | 1.6 | 3.2 | 0.00 | 0.00 | 0.00 | 52 | 1012.2 |
| 20260510020748 | 21 | 66 | 1.6 | 3.2 | 0.00 | 0.00 | 0.00 | 52 | 1011.9 |
| 20260510020243 | 21 | 11 | 3.2 | 3.2 | 0.00 | 0.00 | 0.00 | 51 | 1011.6 |
| 20260510015739 | 21 | 356 | 4.8 | 6.4 | 0.00 | 0.00 | 0.00 | 50 | 1011.9 |
| 20260510015236 | 21 | 30 | 6.4 | 6.4 | 0.00 | 0.00 | 0.00 | 50 | 1011.7 |
| 20260510014731 | 21 | 72 | 4.8 | 6.4 | 0.00 | 0.00 | 0.00 | 50 | 1011.3 |
| 20260510014228 | 21 | 54 | 8.0 | 9.7 | 0.00 | 0.00 | 0.00 | 49 | 1011.4 |
| 20260510013724 | 21 | 65 | 4.8 | 4.8 | 0.00 | 0.00 | 0.00 | 49 | 1011.4 |
| 20260510013220 | 21 | 14 | 6.4 | 6.4 | 0.00 | 0.00 | 0.00 | 50 | 1011.4 |
| 20260510012719 | 21 | 75 | 4.8 | 4.8 | 0.00 | 0.00 | 0.00 | 51 | 1011.3 |
| 20260510012215 | 21 | 58 | 0.0 | 0.0 | 0.00 | 0.00 | 0.00 | 51 | 1011.2 |
| 20260510011709 | 22 | 47 | 1.6 | 1.6 | 0.00 | 0.00 | 0.00 | 50 | 1010.8 |
| 20260510011205 | 22 | 35 | 1.6 | 1.6 | 0.00 | 0.00 | 0.00 | 49 | 1010.9 |
| 20260510010702 | 22 | 42 | 0.0 | 0.0 | 0.00 | 0.00 | 0.00 | 49 | 1010.8 |
| 20260510010159 | 22 | 40 | 0.0 | 0.0 | 0.00 | 0.00 | 0.00 | 48 | 1010.8 |
| 20260510005655 | 22 | 64 | 4.8 | 4.8 | 0.00 | 0.00 | 0.00 | 47 | 1010.8 |
| 20260510005152 | 23 | 3 | 6.4 | 6.4 | 0.00 | 0.00 | 0.00 | 46 | 1010.8 |
| 20260510004650 | 23 | 355 | 6.4 | 6.4 | 0.00 | 0.00 | 0.00 | 45 | 1010.7 |
| 20260510004148 | 23 | 8 | 8.0 | 9.7 | 0.00 | 0.00 | 0.00 | 45 | 1010.5 |
| 20260510003645 | 23 | 1 | 4.8 | 4.8 | 0.00 | 0.00 | 0.00 | 45 | 1010.5 |
| 20260510003140 | 23 | 344 | 9.7 | 12.9 | 0.00 | 0.00 | 0.00 | 43 | 1010.3 |
| 20260510002635 | 23 | 319 | 8.0 | 9.7 | 0.00 | 0.00 | 0.00 | 43 | 1010.0 |
| 20260510002132 | 23 | 351 | 9.7 | 12.9 | 0.00 | 0.00 | 0.00 | 43 | 1010.4 |
| 20260510001629 | 24 | 0 | 9.7 | 12.9 | 0.00 | 0.00 | 0.00 | 43 | 1010.2 |
| 20260510001128 | 24 | 12 | 8.0 | 11.3 | 0.00 | 0.00 | 0.00 | 43 | 1010.1 |
| 20260510000628 | 25 | 347 | 6.4 | 9.7 | 0.00 | 0.00 | 0.00 | 42 | 1010.1 |
| 20260510000126 | 24 | 355 | 8.0 | 11.3 | 0.00 | 0.00 | 0.00 | 42 | 1010.0 |
| 20260509235621 | 24 | 356 | 14.5 | 14.5 | 0.00 | 0.00 | 0.00 | 42 | 1010.1 |
| 20260509235119 | 25 | 348 | 11.3 | 16.1 | 0.00 | 0.00 | 0.00 | 41 | 1010.1 |
| 20260509234614 | 25 | 9 | 12.9 | 17.7 | 0.00 | 0.00 | 0.00 | 40 | 1009.9 |
| 20260509234113 | 25 | 4 | 12.9 | 12.9 | 0.00 | 0.00 | 0.00 | 40 | 1009.7 |
| 20260509233610 | 25 | 304 | 4.8 | 4.8 | 0.00 | 0.00 | 0.00 | 41 | 1009.6 |
| 20260509233107 | 25 | 324 | 6.4 | 6.4 | 0.00 | 0.00 | 0.00 | 39 | 1009.5 |
| 20260509232603 | 26 | 296 | 6.4 | 6.4 | 0.00 | 0.00 | 0.00 | 39 | 1009.3 |
| 20260509232100 | 26 | 269 | 9.7 | 14.5 | 0.00 | 0.00 | 0.00 | 39 | 1009.5 |
| 20260509231556 | 26 | 314 | 12.9 | 12.9 | 0.00 | 0.00 | 0.00 | 38 | 1009.5 |
| 20260509231054 | 26 | 304 | 4.8 | 4.8 | 0.00 | 0.00 | 0.00 | 40 | 1009.5 |
| 20260509230551 | 26 | 297 | 3.2 | 4.8 | 0.00 | 0.00 | 0.00 | 39 | 1009.4 |
| 20260509230048 | 26 | 302 | 4.8 | 4.8 | 0.00 | 0.00 | 0.00 | 38 | 1009.5 |
| 20260509225548 | 26 | 314 | 12.9 | 12.9 | 0.00 | 0.00 | 0.00 | 37 | 1009.4 |
| 20260509225044 | 26 | 295 | 4.8 | 4.8 | 0.00 | 0.00 | 0.00 | 37 | 1009.5 |
| 20260509224540 | 26 | 293 | 4.8 | 4.8 | 0.00 | 0.00 | 0.00 | 37 | 1009.0 |
| 20260509224037 | 26 | 308 | 4.8 | 4.8 | 0.00 | 0.00 | 0.00 | 37 | 1009.1 |
| 20260509223534 | 26 | 277 | 11.3 | 12.9 | 0.00 | 0.00 | 0.00 | 35 | 1009.2 |
| 20260509223032 | 26 | 280 | 9.7 | 11.3 | 0.00 | 0.00 | 0.00 | 35 | 1009.1 |
| 20260509222527 | 26 | 273 | 11.3 | 12.9 | 0.00 | 0.00 | 0.00 | 35 | 1009.0 |
| 20260509222023 | 27 | 275 | 6.4 | 6.4 | 0.00 | 0.00 | 0.00 | 35 | 1009.1 |
| 20260509221519 | 27 | 285 | 11.3 | 12.9 | 0.00 | 0.00 | 0.00 | 35 | 1008.9 |
| 20260509221015 | 27 | 271 | 9.7 | 12.9 | 0.00 | 0.00 | 0.00 | 36 | 1008.9 |